This is the latest recevied weather packets stored in our database for station/object KC3BHK-2. If no packets are shown the sender has not sent any weather packets the latest 1 day(s).
| Time | Temp. | Humidity | Pressure | Rain* | Wind** | Luminosity | Snow |
|---|---|---|---|---|---|---|---|
| 1778115394 | 16.67° C | - | - | 0 mm | 1.34 m/s, 336° | - | - |
| 1778115089 | 16.67° C | - | - | 0 mm | 1.79 m/s, 172° | - | - |
| 1778114175 | 16.67° C | - | - | 0 mm | 2.24 m/s, 23° | - | - |
| 1778113867 | 17.22° C | - | - | 0 mm | 3.13 m/s, 342° | - | - |
| 1778113562 | 17.22° C | - | - | 0 mm | 3.58 m/s, 290° | - | - |
| 1778112953 | 17.22° C | - | - | 0 mm | 0.89 m/s, 349° | - | - |
| 1778112648 | 17.22° C | - | - | 0 mm | 2.24 m/s, 318° | - | - |
| 1778110204 | 17.22° C | - | - | 0 mm | 3.13 m/s, 288° | - | - |
| 1778108984 | 17.78° C | - | - | 0 mm | 0 m/s | - | - |
| 1778105625 | 20.56° C | - | - | 0 mm | 0 m/s | - | - |
| 1778105320 | 20.56° C | - | - | 0 mm | 0 m/s | - | - |
| 1778105015 | 20.56° C | - | - | 0 mm | 0.89 m/s, 186° | - | - |
| 1778103791 | 19.44° C | - | - | 0 mm | 1.34 m/s, 240° | - | - |
| 1778103486 | 20° C | - | - | 0 mm | 0.89 m/s, 198° | - | - |
| 1778102264 | 20° C | - | - | 0 mm | 0.89 m/s, 139° | - | - |
| 1778101959 | 19.44° C | - | - | 0 mm | 0.89 m/s, 153° | - | - |
| 1778101653 | 18.89° C | - | - | 0 mm | 0.89 m/s, 143° | - | - |
| 1778100430 | 18.89° C | - | - | 0 mm | 0 m/s | - | - |
| 1778100124 | 18.89° C | - | - | 0 mm | 0 m/s | - | - |
| 1778098901 | 19.44° C | - | - | 0 mm | 0 m/s | - | - |
| 1778098596 | 18.89° C | - | - | 0 mm | 0.89 m/s, 193° | - | - |
| 1778097374 | 19.44° C | - | - | 0 mm | 1.79 m/s, 153° | - | - |
| 1778094932 | 20.56° C | - | - | 0 mm | 4.02 m/s, 141° | - | - |
| 1778094627 | 20.56° C | - | - | 0 mm | 2.24 m/s, 186° | - | - |
| 1778093710 | 20.56° C | - | - | 0 mm | 4.02 m/s, 156° | - | - |
* Rain latest hour (hover to see other rain measurements)
** Current wind speed in m/s (hover to see current wind gust speed)